Location: Unspecified
(47.2500°N, 0.0000°E)
Time: 06:49:40
(UTC+00:00)

Envisat - Visible Passes

Search period start: 16 October 2019 00:00
Search period end: 26 October 2019 00:00
Orbit: 764 x 766 km, 98.1° (Epoch: 15 October)

Date Brightness Start Highest point End Pass type
(mag) Time Alt. Az. Time Alt. Az. Time Alt. Az.
16 Oct 6.7 05:26:27 10° ENE 05:27:43 11° E 05:29:00 10° E visible
16 Oct 3.7 18:20:10 10° S 18:25:10 59° W 18:30:13 10° NNW visible
17 Oct 3.0 17:43:21 10° SSE 17:48:23 69° ENE 17:53:28 10° N visible
17 Oct 5.8 19:24:38 10° SW 19:27:55 17° W 19:31:14 10° NW visible
18 Oct 6.1 05:50:01 10° NE 05:53:35 19° E 05:57:07 10° SE visible
18 Oct 4.7 18:46:11 10° SSW 18:50:48 35° W 18:55:27 10° NNW visible
19 Oct 3.3 18:08:49 10° S 18:13:53 73° WSW 18:18:59 10° NNW visible
20 Oct 3.1 17:32:13 10° SSE 17:37:10 55° ENE 17:42:08 10° N visible
20 Oct 5.5 19:12:42 10° SW 19:16:31 21° W 19:20:23 10° NW visible
21 Oct 6.2 05:39:15 10° NE 05:42:11 15° E 05:45:05 10° ESE visible
21 Oct 4.3 18:34:39 10° S 18:39:28 43° W 18:44:20 10° NNW visible
22 Oct 3.0 17:57:32 10° SSE 18:02:37 89° W 18:07:44 10° NNW visible
22 Oct 6.1 19:40:15 10° WSW 19:42:22 12° W 19:44:30 10° WNW visible
23 Oct 5.2 19:00:56 10° SSW 19:05:09 26° W 19:09:25 10° NW visible
24 Oct 6.5 05:28:50 10° ENE 05:30:45 12° E 05:32:40 10° ESE visible
24 Oct 3.8 18:23:11 10° S 18:28:09 54° W 18:33:09 10° NNW visible
25 Oct 2.9 17:46:18 10° SSE 17:51:21 74° ENE 17:56:27 10° N visible
25 Oct 5.9 19:27:55 10° SW 19:30:57 16° W 19:34:00 10° NW visible
